Location: Aalen
(48.8330°N, 10.1000°E)
Time: 18:30:15
(UTC+02:00)

Transit 4A - Pass Details

Date: 08 August 2021
Orbit: 871 x 974 km, 66.8° (Epoch: 16 September)

Event Time Altitude Azimuth Distance (km) Brightness Sun altitude
Rises 01:36:18 0° 253° (WSW) 3,474 - -25.0°
Exits shadow 01:38:05 - 260° (W) 2,865 10.3 -25.0°
Reaches altitude 10° 01:39:08 10° 265° (W) 2,529 10.1 -25.0°
Maximum altitude 01:44:08 29° 324° (NW) 1,560 9.5 -24.9°
Drops below altitude 10° 01:49:09 10° 24° (NNE) 2,530 11.1 -24.8°
Sets 01:52:00 0° 35° (NE) 3,476 11.9 -24.8°
